Location: Gerlach
(40.6516°N, 119.3568°W)
Time: 04:54:10
(UTC-07:00)

CUTE 1.7 + AOD 2 - Visible Passes

Search period start: 17 September 2024 00:00
Search period end: 27 September 2024 00:00
Orbit: 563 x 579 km, 97.8° (Epoch: 16 September)

Date Brightness Start Highest point End Pass type
(mag) Time Alt. Az. Time Alt. Az. Time Alt. Az.
17 Sep ? 03:50:11 10° NE 03:53:27 24° E 03:53:27 24° E visible
17 Sep ? 05:25:14 10° NNW 05:28:37 25° WNW 05:29:36 23° W visible
18 Sep ? 03:52:21 10° NE 03:55:37 26° E 03:55:37 26° E visible
18 Sep ? 05:27:32 10° NNW 05:30:50 24° WNW 05:31:45 22° W visible
19 Sep ? 03:54:31 10° NE 03:57:46 27° E 03:57:46 27° E visible
19 Sep ? 05:29:49 10° NNW 05:33:02 23° WNW 05:33:54 21° W visible
20 Sep ? 03:56:40 10° NE 03:59:53 28° E 03:59:53 28° E visible
20 Sep ? 05:32:04 10° NNW 05:35:13 22° WNW 05:36:02 20° W visible
21 Sep ? 03:58:47 10° NE 04:01:59 30° E 04:01:59 30° E visible
21 Sep ? 05:34:18 10° NNW 05:37:22 21° WNW 05:38:07 20° W visible
22 Sep ? 04:00:53 10° NNE 04:04:03 31° E 04:04:03 31° E visible
22 Sep ? 05:36:31 10° NNW 05:39:30 20° WNW 05:40:10 19° W visible
23 Sep ? 04:02:58 10° NNE 04:06:05 32° ENE 04:06:05 32° ENE visible
23 Sep ? 05:38:43 10° NNW 05:41:36 19° WNW 05:42:13 18° W visible
24 Sep ? 04:05:03 10° NNE 04:08:06 33° ENE 04:08:06 33° ENE visible
24 Sep ? 05:40:54 10° NNW 05:43:41 18° WNW 05:44:14 17° WNW visible
25 Sep ? 04:07:05 10° NNE 04:10:06 34° ENE 04:10:06 34° ENE visible
25 Sep ? 05:43:03 10° NNW 05:45:44 17° WNW 05:46:14 17° WNW visible
26 Sep ? 04:09:06 10° NNE 04:12:04 35° ENE 04:12:04 35° ENE visible
26 Sep ? 05:45:12 10° NNW 05:47:46 16° WNW 05:48:12 16° WNW visible
